一网星座-0029星 (ONEWEB-0029 )

导读 | 星芒AI

ONEWEB-0029 是 OneWeb 卫星通信公司发射的低轨通信卫星之一,属于其全球宽带互联网星座计划的一部分。该卫星运行在约 1200 公里的近地轨道,采用先进通信技术,旨在为全球用户提供高速、低延迟的互联网服务,特别是在航空、航海及偏远地区。ONEWEB-0029 的部署有助于扩大 OneWeb 的覆盖范围,增强其在全球卫星互联网市场的竞争力。

基本信息
目录编号:
45445
目录名称:
ONEWEB-0029
国际标识:
2020-020X
轨道中心:
EARTH
卫星名称:
一网星座-0029星
卫星全名:
一网星座-0029星 (ONEWEB-0029 )
卫星状态:
在轨 (已飞行2093 天)
发射日期:
2020-03-21 UTC
国别 :
英国 (GB)
星等 :
--
轨道信息
数据来源 国际轨道数据 AOE轨道数据
星历时间 2025-12-13T00:48:23+0800
17小时前
查看轨道信息
2025-12-12T03:00:00+0800
1天前
查看轨道信息
半长轴 7595.817km 7595.797km
偏心率 0.0001903 0.0001844
轨道倾角 87.887° 87.888°
近地点辐角 103.441° 103.359°
升交点赤经 58.198° 58.377°
平近点角 256.693° 289.611°
近地点 1216.236km 1216.261km
远地点 1219.128km 1219.063km
周期 109.805分钟 109.804分钟
每日圈数 13.114178 13.114229
详细信息
平衡模式:
三轴稳定
覆盖范围:
全球
运营商:
一网卫星公司
运营商所在国:
英国
制造商(研发单位):
一网卫星公司
制造商所在国:
英国
使用方式:
暂无
卫星简介
OneWeb卫星网络由648颗重约125公斤的微型卫星组成,运行在1200公里的轨道上。 每颗卫星都能够提供至少每秒8千兆位的吞吐量,以使用其高吞吐量的Ku频段有效载荷为家庭和移动平台提供互联网接入。该卫星仍在工作。
2D轨道图
3D轨道图
轨道高度分析图
轨道倾角分析图
轨道综合分析图
查看轨道综合分析图